Regional Weather Roundup
Issued by NWS

Home | Current Version | Previous Version | Text Only | Print | Product List | Glossary Off
Versions: 1 2 3 4 5 6 7 8 9 10 11 12 13 14 15 16 17 18 19 20 21 22 23 24 25 26 27 28

000
ASUS45 KSLC 151910
RWRUT

UTAH REGIONAL WEATHER ROUNDUP
NATIONAL WEATHER SERVICE SALT LAKE CITY UT
1200 PM MST FRI DEC 15 2017

UTZ001>011-023>025-152000-

NORTHERN UTAH

CITY           SKY/WX    TMP DP  RH WIND       PRES   REMARKS
BRIGHAM CITY   SUNNY     32  26  77 CALM      30.29F
DUGWAY         PTSUNNY   39  23  52 VRB1      30.27F
HILL AFB       SUNNY     36  20  51 CALM      30.26F
LOGAN          SUNNY     24  20  84 CALM      30.29F FOG
OGDEN          SUNNY     38  21  50 N3        30.26F
SALT LAKE CITY PTSUNNY   40  26  57 NW3       30.27F
TOOELE VALLEY  SUNNY     37  27  65 S6        30.27F WCI  33
WENDOVER       SUNNY     30  22  72 SE3       30.28F
HEBER CITY       N/A     30  23  74 CALM      30.23F
WEST JORDAN    SUNNY     37  25  62 S3        30.27F

$$

UTZ011>015-024>027-152000-

CENTRAL/NORTHEAST UTAH

CITY           SKY/WX    TMP DP  RH WIND       PRES   REMARKS
PROVO AIRPORT  MOSUNNY   34  25  69 NW3       30.28F
MOAB/CANYONLAN SUNNY     42  13  30 E6        30.30F
DELTA          SUNNY     34  21  60 S3        30.25F
PRICE          SUNNY     38  16  40 VRB5      30.27F WCI  34
RICHFIELD      SUNNY     36  16  44 CALM      30.26F
ROOSEVELT      SUNNY     32  18  55 E3        30.30F
VERNAL         SUNNY     35  19  52 CALM      30.27F

$$

UTZ013>016-019>022-027-152000-

SOUTHERN UTAH

CITY           SKY/WX    TMP DP  RH WIND       PRES   REMARKS
BRYCE CANYON   SUNNY     47  -6  11 SE10      30.29F
CEDAR CITY     SUNNY     41  14  33 CALM      30.24F
MILFORD        SUNNY     37  20  50 S14       30.24F WCI  28
ST GEORGE      CLEAR     43  18  36 CALM      30.30F
HANKSVILLE     SUNNY     36  12  38 CALM      30.35F
KANAB          SUNNY     50   1  13 SW5       30.32F
BLANDING         N/A     42   4  21 SW3       30.37F

$$

REGIONAL REPORTS     COLORADO/ARIZONA

CITY           SKY/WX    TMP DP  RH WIND       PRES   REMARKS
CRAIG, CO      SUNNY     33  15  47 CALM      30.24F
GRAND JUNCTION SUNNY     38  11  32 S7        30.32F WCI  33
RIFLE, CO      SUNNY     33  10  38 CALM      30.31F
MONTROSE, CO   SUNNY     39  13  34 CALM      30.33F
CORTEZ, CO     SUNNY     43  -4  14 CALM      30.30F
COLORADO CITY    N/A     52   7  16 SE8       30.30F
PAGE, AZ       SUNNY     43  15  32 NW3       30.31F
GRAND CANYON   SUNNY     53  -9   7 SE6       30.31F
KINGMAN, AZ    SUNNY     59  10  14 N6        30.25F
FLAGSTAFF, AZ  SUNNY     49 -14   7 E7        30.31F

$$

REGIONAL REPORTS    NEVADA/IDAHO/WYOMING

CITY           SKY/WX    TMP DP  RH WIND       PRES   REMARKS
LAS VEGAS, NV  MOSUNNY   57  17  21 NE5       30.24F
ELY, NY        SUNNY     50  -1  12 E3        30.24F
ELKO, NV       MOSUNNY   27  19  72 SE3       30.24F
POCATELLO, ID  CLOUDY    22  20  92 NE6       30.23F FOG     WCI  14
BURLEY, ID     MOSUNNY   30  26  85 CALM      30.19F
FORT BRIDGER,    N/A     44  -3  13 W17G23    30.20F
EVANSTON, WY   CLOUDY    36  16  44 SW10      30.19F WCI  28
ROCK SPRINGS,  CLOUDY    39   8  27 W22G31    30.14F WCI  29

$$




USA.gov is the U.S. government's official web portal to all federal, state and local government web resources and services.